Regional Weather Roundup
Issued by NWS

Home | Current Version | Previous Version | Graphics & Text | Print | Product List | Glossary On
Versions: 1 2 3 4 5 6 7 8 9 10 11 12 13 14 15 16 17 18 19 20 21 22 23 24 25 26 27 28 29 30 31 32 33 34 35 36 37 38 39 40 41 42 43 44 45 46 47 48 49 50
000
ASUS43 KLOT 250312
RWRIL

ILLINOIS REGIONAL WEATHER ROUNDUP
NATIONAL WEATHER SERVICE CHICAGO/ROMEOVILLE IL
900 PM CST FRI FEB 24 2017

NOTE: "FAIR" INDICATES FEW OR NO CLOUDS BELOW 12,000 FEET WITH NO
SIGNIFICANT WEATHER AND/OR OBSTRUCTIONS TO VISIBILITY.

* THESE STATIONS ARE NOT UNDER NWS QUALITY CONTROL. THEY ALSO MAY NOT
  REPORT WEATHER SUCH AS PRECIPITATION OR FOG.

ILZ001-002-007-009-015-016-024-250400-
NORTHWEST ILLINOIS

CITY           SKY/WX    TMP DP  RH WIND       PRES   REMARKS
MOLINE         CLOUDY    34  29  82 NW8       29.68R WCI  27
STERLING*      MIX PCPN  31  30  96 N10       29.65R FOG     WCI  22
$$

ILZ003-004-008-010-011-017-018-250400-
NORTH CENTRAL ILLINOIS

CITY           SKY/WX    TMP DP  RH WIND       PRES   REMARKS
ROCKFORD       FLURRIES  31  27  85 N10       29.63R WCI  22
FREEPORT*      CLOUDY    28  26  92 NW9       29.65R WCI  20
ROCHELLE*      LGT SNOW  31  29  95 NW14      29.62R WCI  20
DE KALB*       LGT SNOW  31  29  93 N9G16     29.60S WCI  23
PERU*          CLOUDY    32  31  95 NW12      29.63R WCI  23
$$

ILZ005-006-012>014-019>023-250400-
NORTHEAST ILLINOIS

CITY           SKY/WX    TMP DP  RH WIND       PRES   REMARKS
CHICAGO-OHARE  CLOUDY    37  33  85 W14       29.57R WCI  28
CHICAGO-MIDWAY CLOUDY    39  33  79 W9        29.58R WCI  33
AURORA         CLOUDY    34  30  85 NW13      29.60R WCI  25
LANSING*       CLOUDY    40  38  90 W6        29.59R
JOLIET*        CLOUDY    40  37  87 W7        29.59S
WAUKEGAN       CLOUDY    32  30  92 NW8       29.56R WCI  25
DUPAGE AIRPORT CLOUDY    32  29  88 NW13      29.59R WCI  22
KANKAKEE*      PTCLDY    40  36  86 W13       29.61R
WHEELING       CLOUDY    34  31  88 W9        29.59R WCI  27
MORRIS*        CLOUDY    38  36  92 W12       29.59S WCI  31
ROMEOVILLE*    CLOUDY    38  37  97 NW10G20   29.58S WCI  31
NORTHERLY ISL    N/A     39  34  82 SW13        N/A  WCI  31
$$

LMZ740>746-250400-
SOUTHERN LAKE MICHIGAN

STATION/POSITION SKY/WX   TEMP    WIND        PRES    VSBY  WAVE
                          AIR SEA DIR/SP/G                  HT/PER
                          (F)     (DEG/KT/KT) (MB)    (MI)  (FT/S)
HARRISON CRIB              39     310/  6/  7   N/A
BURNHAM HARBOR             39     270/  6/ 12   N/A
CALUMET HARBOR             40     250/  8/ 14 1001.5R
BURNS HARBOR               41     260/ 14/ 20 1002.4R
MICHIGAN CITY              36     230/  6/  7   N/A
$$

ILZ025>027-034>036-040-047-049-050-058-095>099-250400-
WEST-CENTRAL ILLINOIS

CITY           SKY/WX    TMP DP  RH WIND       PRES   REMARKS
QUINCY         CLOUDY    32  29  88 W18G24    29.76R WCI  20
GALESBURG*     FLURRIES  33  32  97 W14       29.68R WCI  23
MACOMB*        LGT SNOW  34  32  93 W20       29.72R WCI  22
JACKSONVILLE*  CLOUDY    36  33  90 W18G25    29.73R WCI  26
PITTSFIELD*    CLOUDY    35  31  85 W18G26    29.77R WCI  24
$$

ILZ028>032-037-038-041>044-048-051>054-059>061-250400-
CENTRAL ILLINOIS

CITY           SKY/WX    TMP DP  RH WIND       PRES   REMARKS
PONTIAC        CLOUDY    41  38  90 W20       29.63R
BLOOMINGTON    LGT RAIN  39  35  86 W16G28    29.64R WCI  30
DECATUR        CLOUDY    43  32  65 W17G25    29.67R
PEORIA         CLOUDY    38  32  79 W18       29.67R WCI  28
LACON*         CLOUDY    37  34  88 W10G17    29.64R WCI  30
LINCOLN*       MOCLDY    40  38  91 W10       29.68R
SPRINGFIELD    LGT RAIN  41  34  76 W18G26    29.70R
TAYLORVILLE    CLOUDY    42  33  71 W17G23    29.70R
$$

ILZ033-039-045-046-055>057-062-063-250400-
EAST-CENTRAL ILLINOIS

CITY           SKY/WX    TMP DP  RH WIND       PRES   REMARKS
CHAMPAIGN      PTCLDY    43  33  68 W17       29.65R
RANTOUL*       DRIZZLE   43  41  90 W16G32    29.64R
MATTOON        CLEAR     43  33  68 W17G26    29.67R
PARIS*         PTCLDY    42  37  82 W14       29.67R
$$

ILZ079-100>102-250400-
SOUTHWEST ILLINOIS

CITY           SKY/WX    TMP DP  RH WIND       PRES   REMARKS
ALTON          CLOUDY    43  30  61 W24G30    29.74R
BELLEVILLE     MOCLDY    46  29  53 W10G17    29.73R
CAHOKIA*       CLOUDY    47  27  45 W20G31    29.76R
SPARTA*        PTCLDY    45  30  55 W10       29.77R
$$

ILZ064>066-069>071-074>076-080>082-084>086-088>090-092>094-250400-
SOUTH-CENTRAL ILLINOIS

CITY           SKY/WX    TMP DP  RH WIND       PRES   REMARKS
CARBONDALE     CLEAR     47  35  63 NW10      29.75R
CAIRO*         CLEAR     52  34  50 W15       29.76R
EFFINGHAM*     CLEAR     44  35  69 SW15      29.72R
MARION         CLEAR     50  39  66 W8        29.76R
MT. VERNON     CLEAR     46  33  60 VRB7      29.74R
CENTRALIA*     CLEAR     45  33  63 W20       29.73R
SALEM*         CLEAR     46  32  59 W16       29.73R
METROPOLIS*    CLOUDY    56  34  43 W9G22     29.74R
$$

ILZ067-068-072-073-078-083-087-091-250400-
SOUTHEAST ILLINOIS

CITY           SKY/WX    TMP DP  RH WIND       PRES   REMARKS
LAWRENCEVILLE  CLOUDY    49  43  80 NW20G26   29.70R
FLORA*         CLEAR     47  34  60 W12G21    29.72R
FAIRFIELD*     PTCLDY    47  35  63 W6        29.72R
HARRISBURG*    PTCLDY    50  42  72 W15       29.73R
ROBINSON*      MOCLDY    45  39  77 W15       29.71R
CARMI*         PTCLDY    50  42  74 W14G20    29.70R
$$

ABBREVIATIONS USED IN REMARKS
   TC - TEMPERATURE IN CELSIUS
  WCI - WIND CHILL INDEX
   HX - HEAT INDEX
  VSB - VISIBILITY
$$





USA.gov is the U.S. government's official web portal to all federal, state and local government web resources and services.